Tracking 35331 objects as of 16-Sep-2026
HD Live streaming from Space Station
objects crossing your sky now

COSMOS 1649 DEB


COSMOS 1649 DEB is no longer on orbit


NORAD ID: 15754
Int'l Code: 1985-036L
Launch date: May 15, 1985
Source: Commonwealth of Independent States (former USSR) (CIS)
Launch site: PLESETSK MISSILE AND SPACE COMPLEX (PKMTR)
Decay date: 1987-10-26

Note: This is SATELLITE DEBRIS
Your satellite tracking list
Your tracking list is empty




NASA's NSSDC Master Catalog

Two Line Element Set (TLE):
1 15754U 85036  L 87299.38952852  .16837090 +93310-5 +24638-3 0  9992
2 15754 072.8140 047.1764 0010422 273.9268 086.1409 16.48186644140642
Source of the keplerian elements: AFSPC